QPF
0.00 0.00 0.00 0.00 0.00 0.00 0.00 0.00 0.01 0.01 0.02 0.01 0.01 0.01 0.01 0.02 0.01 0.01 0.01 0.02 0.02 0.03 0.04 0.03 0.05 0.05 0.06 0.08 0.08 0.07 0.07 0.08 0.07 0.07 0.06 0.05 0.03 0.03 0.04 0.05 0.07 0.07 0.06
0.00 0.00 0.00 0.00 0.00 0.00 0.00 0.00 0.00 0.01 0.01 0.01 0.01 0.01 0.01 0.01 0.01 0.02 0.02 0.02 0.02 0.02 0.02 0.03 0.04 0.05 0.07 0.08 0.07 0.07 0.06 0.06 0.06 0.05 0.05 0.03 0.04 0.05 0.04 0.04 0.05 0.06 0.08
0.00 0.00 0.00 0.00 0.00 0.00 0.00 0.00 0.00 0.00 0.00 0.00 0.01 0.01 0.02 0.01 0.02 0.03 0.03 0.03 0.03 0.03 0.02 0.03 0.03 0.03 0.04 0.06 0.08 0.07 0.07 0.06 0.05 0.04 0.04 0.05 0.04 0.05 0.03 0.03 0.02 0.04 0.08
0.00 0.00 0.00 0.00 0.00 0.00 0.00 0.00 0.00 0.00 0.00 0.01 0.01 0.02 0.02 0.02 0.03 0.03 0.04 0.04 0.03 0.03 0.03 0.03 0.04 0.04 0.05 0.06 0.05 0.05 0.07 0.07 0.05 0.04 0.04 0.04 0.05 0.06 0.05 0.04 0.03 0.04 0.06
0.00 0.00 0.00 0.00 0.01 0.00 0.00 0.00 0.00 0.00 0.00 0.01 0.02 0.03 0.03 0.03 0.03 0.04 0.05 0.06 0.05 0.05 0.05 0.06 0.06 0.05 0.05 0.05 0.06 0.07 0.06 0.06 0.06 0.05 0.03 0.03 0.04 0.05 0.05 0.05 0.04 0.05 0.05
0.00 0.00 0.00 0.00 0.00 0.00 0.00 0.00 0.00 0.01 0.00 0.00 0.01 0.02 0.03 0.04 0.05 0.06 0.06 0.06 0.05 0.05 0.05 0.06 0.06 0.05 0.03 0.04 0.05 0.07 0.06 0.07 0.07 0.07 0.04 0.04 0.04 0.05 0.05 0.04 0.04 0.04 0.04
0.00 0.00 0.00 0.00 0.00 0.00 0.00 0.00 0.00 0.00 0.01 0.01 0.01 0.02 0.03 0.04 0.04 0.04 0.05 0.05 0.04 0.03 0.05 0.05 0.04 0.03 0.03 0.04 0.04 0.04 0.04 0.05 0.06 0.05 0.05 0.05 0.05 0.05 0.04 0.04 0.04 0.03 0.02
0.00 0.00 0.00 0.00 0.00 0.00 0.00 0.00 0.00 0.01 0.01 0.01 0.01 0.01 0.01 0.01 0.01 0.01 0.02 0.03 0.03 0.03 0.05 0.05 0.04 0.04 0.05 0.05 0.05 0.05 0.06 0.06 0.05 0.04 0.05 0.05 0.04 0.05 0.04 0.05 0.04 0.04 0.02
0.00 0.00 0.00 0.00 0.00 0.00 0.00 0.01 0.01 0.00 0.00 0.00 0.01 0.01 0.02 0.02 0.01 0.02 0.02 0.02 0.04 0.04 0.05 0.04 0.04 0.05 0.06 0.07 0.07 0.06 0.06 0.06 0.05 0.04 0.04 0.03 0.03 0.05 0.04 0.04 0.04 0.04 0.04
0.00 0.00 0.00 0.00 0.00 0.01 0.00 0.00 0.00 0.00 0.00 0.01 0.02 0.02 0.02 0.02 0.02 0.03 0.05 0.05 0.04 0.05 0.05 0.06 0.07 0.06 0.06 0.07 0.09 0.07 0.05 0.05 0.05 0.04 0.03 0.03 0.03 0.04 0.03 0.04 0.05 0.04 0.03
0.00 0.00 0.00 0.00 0.01 0.01 0.00 0.00 0.00 0.00 0.00 0.01 0.02 0.03 0.02 0.02 0.02 0.03 0.05 0.06 0.08 0.09 0.07 0.08 0.09 0.07 0.06 0.06 0.07 0.06 0.06 0.06 0.06 0.05 0.04 0.03 0.03 0.03 0.03 0.04 0.05 0.04 0.03
0.00 0.00 0.00 0.00 0.00 0.00 0.00 0.00 0.01 0.01 0.01 0.02 0.02 0.03 0.03 0.03 0.05 0.07 0.09 0.12 0.16 0.15 0.11 0.08 0.06 0.05 0.05 0.06 0.06 0.07 0.08 0.08 0.06 0.05 0.04 0.03 0.03 0.03 0.03 0.04 0.05 0.05 0.05
0.00 0.00 0.00 0.00 0.00 0.00 0.00 0.01 0.01 0.01 0.02 0.02 0.02 0.03 0.05 0.07 0.09 0.09 0.14 0.18 0.19 0.14 0.09 0.05 0.05 0.05 0.05 0.06 0.06 0.06 0.06 0.07 0.06 0.05 0.04 0.03 0.03 0.03 0.03 0.04 0.04 0.04 0.04
0.00 0.00 0.00 0.00 0.00 0.00 0.01 0.02 0.02 0.02 0.02 0.02 0.02 0.03 0.05 0.07 0.10 0.15 0.19 0.15 0.10 0.06 0.04 0.04 0.05 0.06 0.08 0.09 0.06 0.04 0.04 0.05 0.04 0.04 0.04 0.03 0.03 0.03 0.04 0.04 0.04 0.04 0.04
0.00 0.00 0.01 0.01 0.01 0.01 0.01 0.02 0.01 0.02 0.02 0.02 0.02 0.02 0.03 0.06 0.08 0.06 0.07 0.06 0.05 0.03 0.03 0.04 0.05 0.06 0.07 0.07 0.05 0.03 0.03 0.03 0.02 0.02 0.03 0.02 0.02 0.02 0.02 0.02 0.03 0.04 0.04
0.01 0.01 0.01 0.01 0.02 0.02 0.02 0.01 0.01 0.01 0.01 0.01 0.02 0.02 0.02 0.02 0.03 0.02 0.02 0.02 0.02 0.02 0.04 0.04 0.04 0.03 0.03 0.03 0.03 0.02 0.01 0.01 0.02 0.02 0.03 0.03 0.02 0.02 0.01 0.01 0.02 0.03 0.05
0.01 0.01 0.01 0.01 0.02 0.02 0.02 0.01 0.01 0.01 0.01 0.01 0.02 0.02 0.02 0.02 0.01 0.01 0.02 0.02 0.02 0.02 0.02 0.02 0.02 0.02 0.02 0.03 0.03 0.03 0.02 0.02 0.02 0.03 0.03 0.02 0.02 0.02 0.02 0.03 0.02 0.02 0.02
0.01 0.01 0.01 0.01 0.01 0.01 0.02 0.02 0.01 0.02 0.02 0.02 0.02 0.02 0.02 0.02 0.02 0.02 0.01 0.01 0.01 0.01 0.02 0.02 0.02 0.02 0.02 0.03 0.04 0.04 0.04 0.03 0.03 0.02 0.03 0.03 0.03 0.03 0.03 0.03 0.02 0.02 0.02
0.01 0.02 0.02 0.01 0.01 0.01 0.01 0.01 0.01 0.00 0.01 0.01 0.01 0.02 0.02 0.03 0.02 0.02 0.02 0.02 0.02 0.02 0.02 0.02 0.02 0.02 0.02 0.03 0.04 0.05 0.04 0.05 0.04 0.03 0.03 0.04 0.04 0.04 0.04 0.03 0.02 0.03 0.03
0.01 0.01 0.01 0.01 0.01 0.02 0.01 0.01 0.01 0.01 0.01 0.01 0.02 0.02 0.02 0.02 0.02 0.02 0.03 0.03 0.03 0.02 0.02 0.02 0.02 0.02 0.03 0.04 0.05 0.06 0.05 0.03 0.03 0.02 0.02 0.03 0.04 0.05 0.04 0.03 0.03 0.03 0.04
0.02 0.03 0.03 0.03 0.03 0.03 0.02 0.02 0.02 0.01 0.01 0.01 0.02 0.02 0.02 0.02 0.02 0.02 0.03 0.04 0.04 0.03 0.02 0.02 0.02 0.02 0.03 0.04 0.05 0.06 0.04 0.02 0.02 0.02 0.02 0.02 0.05 0.06 0.06 0.04 0.03 0.04 0.03
0.02 0.02 0.03 0.04 0.05 0.03 0.03 0.03 0.03 0.02 0.02 0.02 0.02 0.02 0.02 0.02 0.03 0.03 0.04 0.03 0.04 0.04 0.04 0.03 0.03 0.03 0.04 0.04 0.05 0.05 0.04 0.05 0.04 0.03 0.03 0.03 0.04 0.05 0.06 0.04 0.03 0.04 0.04
0.02 0.02 0.03 0.04 0.06 0.06 0.04 0.04 0.04 0.03 0.02 0.01 0.02 0.02 0.03 0.03 0.04 0.04 0.05 0.05 0.06 0.06 0.06 0.05 0.04 0.04 0.03 0.03 0.03 0.03 0.03 0.03 0.04 0.04 0.04 0.03 0.03 0.03 0.03 0.05 0.06 0.05 0.03
0.01 0.01 0.02 0.02 0.03 0.04 0.04 0.04 0.05 0.04 0.03 0.03 0.03 0.03 0.04 0.04 0.04 0.04 0.05 0.06 0.06 0.06 0.06 0.05 0.05 0.05 0.05 0.04 0.04 0.03 0.03 0.03 0.04 0.03 0.03 0.03 0.03 0.02 0.02 0.04 0.05 0.04 0.04
0.01 0.01 0.01 0.01 0.01 0.01 0.03 0.04 0.04 0.03 0.03 0.03 0.04 0.04 0.04 0.04 0.04 0.03 0.03 0.03 0.03 0.04 0.03 0.02 0.02 0.02 0.03 0.03 0.03 0.03 0.03 0.03 0.03 0.04 0.03 0.03 0.03 0.03 0.03 0.03 0.03 0.04 0.03
0.00 0.01 0.02 0.01 0.01 0.01 0.01 0.03 0.04 0.05 0.05 0.04 0.05 0.05 0.05 0.03 0.03 0.03 0.03 0.04 0.04 0.04 0.03 0.03 0.03 0.03 0.03 0.03 0.02 0.02 0.03 0.04 0.04 0.05 0.05 0.05 0.05 0.04 0.03 0.04 0.04 0.03 0.03
MSLP
1009.50 1009.67 1009.82 1009.95 1010.08 1010.23 1010.43 1010.67 1010.98 1011.31 1011.64 1011.94 1012.19 1012.35 1012.43 1012.43 1012.38 1012.31 1012.25 1012.21 1012.21 1012.24 1012.29 1012.36 1012.42 1012.48 1012.52 1012.57 1012.62 1012.69 1012.78 1012.88 1012.99 1013.09 1013.18 1013.24 1013.27 1013.28 1013.28 1013.29 1013.33 1013.42 1013.57
1008.97 1009.21 1009.45 1009.66 1009.86 1010.06 1010.29 1010.55 1010.84 1011.16 1011.49 1011.79 1012.03 1012.21 1012.30 1012.33 1012.31 1012.26 1012.22 1012.20 1012.21 1012.26 1012.33 1012.41 1012.50 1012.58 1012.64 1012.71 1012.78 1012.86 1012.96 1013.06 1013.17 1013.27 1013.35 1013.40 1013.41 1013.38 1013.34 1013.30 1013.28 1013.31 1013.40
1008.34 1008.67 1009.00 1009.32 1009.61 1009.89 1010.16 1010.45 1010.75 1011.05 1011.36 1011.64 1011.87 1012.05 1012.16 1012.20 1012.20 1012.18 1012.17 1012.17 1012.20 1012.27 1012.36 1012.46 1012.56 1012.65 1012.73 1012.80 1012.87 1012.95 1013.04 1013.14 1013.25 1013.34 1013.42 1013.46 1013.47 1013.44 1013.39 1013.33 1013.30 1013.30 1013.36
1007.65 1008.06 1008.49 1008.92 1009.32 1009.69 1010.03 1010.35 1010.65 1010.96 1011.24 1011.50 1011.72 1011.89 1012.00 1012.06 1012.08 1012.09 1012.09 1012.11 1012.16 1012.24 1012.34 1012.44 1012.54 1012.63 1012.71 1012.78 1012.84 1012.90 1012.98 1013.06 1013.16 1013.25 1013.33 1013.38 1013.41 1013.41 1013.39 1013.37 1013.36 1013.38 1013.45
1006.95 1007.41 1007.93 1008.45 1008.96 1009.42 1009.83 1010.20 1010.54 1010.84 1011.12 1011.37 1011.58 1011.75 1011.86 1011.93 1011.96 1011.98 1012.00 1012.03 1012.08 1012.16 1012.25 1012.34 1012.43 1012.50 1012.56 1012.61 1012.65 1012.69 1012.74 1012.81 1012.89 1012.98 1013.07 1013.15 1013.22 1013.27 1013.32 1013.36 1013.41 1013.48 1013.59
1006.30 1006.77 1007.33 1007.93 1008.52 1009.06 1009.55 1009.97 1010.34 1010.67 1010.96 1011.22 1011.43 1011.60 1011.72 1011.80 1011.85 1011.87 1011.89 1011.92 1011.96 1012.02 1012.08 1012.15 1012.21 1012.26 1012.29 1012.30 1012.32 1012.33 1012.36 1012.40 1012.47 1012.56 1012.66 1012.78 1012.89 1013.01 1013.13 1013.26 1013.40 1013.55 1013.72
1005.75 1006.19 1006.75 1007.38 1008.02 1008.61 1009.15 1009.63 1010.04 1010.41 1010.73 1011.01 1011.24 1011.43 1011.57 1011.67 1011.73 1011.76 1011.77 1011.78 1011.80 1011.82 1011.85 1011.88 1011.91 1011.92 1011.92 1011.91 1011.89 1011.88 1011.88 1011.91 1011.97 1012.05 1012.16 1012.30 1012.46 1012.64 1012.84 1013.06 1013.28 1013.52 1013.76
1005.35 1005.71 1006.22 1006.82 1007.45 1008.06 1008.63 1009.14 1009.60 1010.01 1010.37 1010.70 1010.98 1011.21 1011.39 1011.52 1011.59 1011.63 1011.63 1011.63 1011.61 1011.60 1011.59 1011.58 1011.57 1011.56 1011.53 1011.50 1011.47 1011.44 1011.43 1011.44 1011.48 1011.55 1011.67 1011.81 1012.00 1012.22 1012.47 1012.75 1013.05 1013.36 1013.67
1005.14 1005.37 1005.77 1006.28 1006.85 1007.42 1007.98 1008.51 1009.00 1009.46 1009.89 1010.27 1010.62 1010.91 1011.14 1011.31 1011.41 1011.46 1011.47 1011.44 1011.41 1011.37 1011.33 1011.30 1011.27 1011.24 1011.21 1011.18 1011.15 1011.12 1011.10 1011.10 1011.13 1011.18 1011.28 1011.41 1011.59 1011.82 1012.09 1012.40 1012.74 1013.09 1013.45
1005.12 1005.18 1005.43 1005.80 1006.25 1006.74 1007.25 1007.76 1008.27 1008.77 1009.26 1009.72 1010.13 1010.50 1010.80 1011.02 1011.16 1011.23 1011.25 1011.23 1011.19 1011.14 1011.10 1011.07 1011.04 1011.03 1011.02 1011.01 1011.00 1010.99 1010.98 1010.98 1010.99 1011.02 1011.08 1011.18 1011.33 1011.52 1011.77 1012.07 1012.40 1012.77 1013.14
1005.27 1005.15 1005.21 1005.39 1005.68 1006.05 1006.48 1006.95 1007.45 1007.98 1008.52 1009.04 1009.53 1009.97 1010.34 1010.61 1010.81 1010.92 1010.97 1010.97 1010.95 1010.92 1010.90 1010.89 1010.91 1010.93 1010.97 1011.01 1011.04 1011.07 1011.09 1011.10 1011.10 1011.11 1011.13 1011.18 1011.27 1011.40 1011.59 1011.83 1012.13 1012.47 1012.83
1005.56 1005.26 1005.11 1005.10 1005.21 1005.43 1005.74 1006.14 1006.62 1007.16 1007.72 1008.30 1008.85 1009.35 1009.77 1010.11 1010.35 1010.51 1010.60 1010.64 1010.66 1010.68 1010.70 1010.75 1010.82 1010.91 1011.02 1011.12 1011.22 1011.30 1011.36 1011.39 1011.40 1011.40 1011.39 1011.38 1011.40 1011.46 1011.57 1011.75 1011.98 1012.27 1012.60
1005.96 1005.50 1005.15 1004.94 1004.87 1004.93 1005.12 1005.44 1005.87 1006.38 1006.96 1007.55 1008.14 1008.67 1009.14 1009.51 1009.80 1010.00 1010.13 1010.23 1010.30 1010.38 1010.47 1010.59 1010.73 1010.90 1011.08 1011.25 1011.42 1011.56 1011.67 1011.74 1011.78 1011.77 1011.75 1011.71 1011.69 1011.68 1011.73 1011.83 1011.99 1012.22 1012.51
1006.45 1005.84 1005.34 1004.95 1004.71 1004.62 1004.69 1004.91 1005.28 1005.75 1006.30 1006.88 1007.46 1008.00 1008.48 1008.87 1009.17 1009.40 1009.58 1009.73 1009.86 1010.00 1010.16 1010.34 1010.56 1010.79 1011.04 1011.28 1011.51 1011.71 1011.87 1012.00 1012.07 1012.10 1012.09 1012.06 1012.02 1011.99 1011.99 1012.04 1012.15 1012.33 1012.57
1006.99 1006.29 1005.67 1005.15 1004.77 1004.56 1004.52 1004.65 1004.93 1005.34 1005.83 1006.37 1006.90 1007.40 1007.85 1008.22 1008.52 1008.77 1008.97 1009.15 1009.33 1009.52 1009.74 1009.99 1010.25 1010.54 1010.83 1011.11 1011.38 1011.63 1011.84 1012.02 1012.15 1012.24 1012.29 1012.30 1012.30 1012.29 1012.29 1012.33 1012.41 1012.55 1012.76
1007.58 1006.84 1006.14 1005.54 1005.07 1004.77 1004.64 1004.68 1004.88 1005.20 1005.61 1006.06 1006.51 1006.94 1007.31 1007.63 1007.90 1008.13 1008.34 1008.54 1008.75 1008.98 1009.24 1009.51 1009.81 1010.11 1010.41 1010.70 1010.99 1011.26 1011.51 1011.73 1011.94 1012.11 1012.24 1012.35 1012.43 1012.48 1012.54 1012.60 1012.69 1012.83 1013.01
1008.21 1007.47 1006.75 1006.12 1005.60 1005.24 1005.05 1005.02 1005.13 1005.36 1005.66 1005.99 1006.32 1006.64 1006.91 1007.15 1007.36 1007.55 1007.74 1007.95 1008.17 1008.42 1008.69 1008.97 1009.26 1009.54 1009.82 1010.09 1010.36 1010.63 1010.90 1011.17 1011.43 1011.70 1011.94 1012.17 1012.36 1012.53 1012.67 1012.80 1012.92 1013.06 1013.24
1008.89 1008.18 1007.49 1006.86 1006.34 1005.96 1005.73 1005.63 1005.66 1005.78 1005.96 1006.15 1006.35 1006.52 1006.67 1006.81 1006.93 1007.07 1007.24 1007.43 1007.65 1007.90 1008.17 1008.43 1008.69 1008.94 1009.17 1009.39 1009.61 1009.85 1010.11 1010.41 1010.74 1011.08 1011.44 1011.79 1012.11 1012.40 1012.65 1012.86 1013.04 1013.20 1013.36
1009.58 1008.94 1008.31 1007.73 1007.24 1006.86 1006.60 1006.46 1006.40 1006.41 1006.46 1006.51 1006.55 1006.57 1006.59 1006.61 1006.65 1006.72 1006.85 1007.02 1007.24 1007.49 1007.74 1007.99 1008.22 1008.41 1008.58 1008.74 1008.90 1009.09 1009.33 1009.63 1009.99 1010.41 1010.86 1011.31 1011.75 1012.15 1012.50 1012.78 1013.01 1013.19 1013.34
1010.29 1009.73 1009.18 1008.67 1008.22 1007.86 1007.59 1007.40 1007.27 1007.18 1007.09 1006.99 1006.87 1006.75 1006.63 1006.53 1006.49 1006.50 1006.59 1006.75 1006.97 1007.21 1007.47 1007.70 1007.90 1008.06 1008.17 1008.27 1008.37 1008.51 1008.72 1009.00 1009.37 1009.81 1010.31 1010.84 1011.36 1011.84 1012.25 1012.59 1012.84 1013.02 1013.15
1010.97 1010.51 1010.05 1009.60 1009.21 1008.88 1008.61 1008.38 1008.18 1007.98 1007.76 1007.53 1007.27 1007.00 1006.75 1006.55 1006.42 1006.39 1006.45 1006.60 1006.82 1007.08 1007.35 1007.59 1007.78 1007.92 1008.01 1008.07 1008.12 1008.22 1008.37 1008.62 1008.97 1009.41 1009.91 1010.46 1011.00 1011.51 1011.95 1012.29 1012.54 1012.71 1012.80
1011.62 1011.24 1010.86 1010.48 1010.14 1009.84 1009.56 1009.30 1009.04 1008.75 1008.42 1008.06 1007.67 1007.28 1006.92 1006.62 1006.42 1006.33 1006.37 1006.52 1006.75 1007.04 1007.33 1007.61 1007.82 1007.98 1008.07 1008.11 1008.15 1008.20 1008.32 1008.52 1008.82 1009.21 1009.68 1010.19 1010.71 1011.19 1011.60 1011.92 1012.14 1012.26 1012.32
1012.18 1011.88 1011.56 1011.25 1010.95 1010.67 1010.39 1010.10 1009.78 1009.42 1009.00 1008.53 1008.03 1007.54 1007.08 1006.70 1006.43 1006.30 1006.31 1006.46 1006.71 1007.02 1007.36 1007.67 1007.94 1008.13 1008.25 1008.32 1008.35 1008.39 1008.47 1008.63 1008.86 1009.18 1009.57 1010.00 1010.44 1010.85 1011.19 1011.45 1011.62 1011.70 1011.71
1012.64 1012.39 1012.13 1011.86 1011.59 1011.33 1011.05 1010.74 1010.37 1009.95 1009.46 1008.91 1008.33 1007.75 1007.21 1006.75 1006.43 1006.25 1006.23 1006.36 1006.61 1006.94 1007.32 1007.68 1008.00 1008.25 1008.42 1008.53 1008.58 1008.63 1008.68 1008.79 1008.95 1009.18 1009.47 1009.80 1010.13 1010.44 1010.69 1010.88 1010.99 1011.03 1011.01
1012.97 1012.75 1012.52 1012.28 1012.03 1011.78 1011.50 1011.17 1010.79 1010.33 1009.79 1009.19 1008.54 1007.90 1007.29 1006.77 1006.38 1006.15 1006.08 1006.17 1006.41 1006.74 1007.13 1007.52 1007.89 1008.19 1008.42 1008.57 1008.66 1008.71 1008.76 1008.82 1008.92 1009.06 1009.25 1009.46 1009.68 1009.88 1010.05 1010.16 1010.23 1010.23 1010.20
1013.15 1012.94 1012.72 1012.50 1012.26 1012.01 1011.73 1011.41 1011.01 1010.53 1009.97 1009.34 1008.67 1007.98 1007.32 1006.74 1006.29 1005.98 1005.85 1005.88 1006.06 1006.35 1006.72 1007.12 1007.50 1007.84 1008.11 1008.30 1008.42 1008.49 1008.53 1008.56 1008.61 1008.67 1008.77 1008.88 1009.00 1009.12 1009.21 1009.28 1009.31 1009.32 1009.30
Thickness
5827 5826 5823 5821 5818 5814 5810 5806 5803 5800 5798 5796 5793 5791 5789 5789 5788 5786 5783 5781 5780 5778 5776 5777 5774 5773 5772 5769 5768 5766 5764 5763 5763 5761 5759 5761 5762 5761 5759 5759 5758 5755 5753
5826 5824 5824 5822 5818 5814 5811 5808 5804 5802 5799 5797 5794 5792 5790 5790 5789 5787 5783 5781 5779 5777 5777 5773 5773 5771 5768 5765 5764 5762 5761 5761 5761 5757 5754 5752 5753 5754 5758 5755 5753 5752 5751
5827 5825 5823 5822 5819 5816 5813 5811 5807 5804 5800 5798 5796 5793 5790 5789 5788 5785 5783 5781 5778 5776 5774 5773 5772 5769 5768 5765 5762 5760 5757 5756 5757 5758 5753 5748 5745 5747 5750 5750 5749 5747 5746
5832 5829 5826 5823 5822 5820 5817 5812 5807 5804 5801 5798 5796 5793 5789 5786 5785 5785 5784 5781 5778 5776 5774 5772 5769 5767 5767 5763 5762 5761 5757 5754 5753 5754 5752 5751 5749 5742 5740 5744 5746 5744 5742
5835 5832 5830 5827 5826 5823 5819 5814 5808 5804 5801 5798 5795 5791 5789 5788 5787 5784 5781 5780 5778 5775 5773 5770 5768 5765 5764 5761 5759 5756 5755 5755 5752 5751 5749 5747 5745 5744 5738 5735 5737 5739 5740
5835 5833 5831 5828 5825 5823 5819 5815 5808 5803 5801 5797 5795 5791 5788 5786 5783 5780 5778 5778 5777 5775 5772 5769 5766 5764 5762 5759 5756 5754 5753 5751 5749 5748 5747 5744 5741 5739 5737 5733 5731 5732 5734
5833 5830 5827 5824 5822 5820 5818 5815 5809 5804 5801 5798 5794 5791 5788 5785 5781 5779 5777 5776 5776 5774 5770 5768 5764 5762 5759 5756 5754 5752 5750 5748 5745 5743 5743 5743 5740 5739 5737 5733 5730 5728 5729
5833 5829 5827 5824 5820 5818 5815 5813 5808 5803 5800 5796 5793 5791 5788 5787 5785 5781 5779 5776 5774 5773 5769 5765 5762 5759 5756 5755 5752 5751 5748 5745 5742 5741 5738 5737 5738 5737 5735 5731 5726 5722 5724
5830 5827 5825 5823 5820 5816 5813 5811 5806 5802 5798 5796 5792 5789 5786 5784 5783 5780 5777 5776 5772 5770 5766 5763 5760 5757 5754 5751 5749 5746 5743 5741 5739 5738 5735 5734 5734 5733 5731 5729 5725 5719 5714
5826 5825 5822 5820 5818 5816 5813 5810 5805 5800 5796 5794 5790 5788 5784 5781 5779 5777 5774 5771 5768 5765 5762 5760 5756 5753 5750 5748 5745 5742 5739 5736 5734 5731 5729 5727 5729 5728 5726 5725 5722 5720 5715
5822 5820 5818 5817 5815 5813 5810 5806 5802 5798 5794 5791 5788 5785 5782 5780 5777 5774 5771 5767 5765 5761 5757 5754 5751 5748 5745 5742 5740 5738 5735 5732 5730 5727 5725 5722 5720 5720 5720 5719 5717 5715 5713
5819 5817 5814 5811 5809 5807 5805 5801 5798 5795 5791 5788 5784 5781 5779 5777 5774 5771 5768 5765 5760 5757 5753 5750 5747 5743 5740 5738 5736 5733 5730 5727 5725 5723 5720 5717 5716 5713 5713 5711 5710 5709 5708
5811 5810 5808 5805 5803 5801 5799 5797 5794 5791 5788 5784 5781 5777 5775 5772 5769 5767 5764 5760 5757 5753 5750 5746 5742 5739 5735 5733 5731 5728 5725 5723 5721 5719 5716 5713 5710 5708 5707 5705 5704 5704 5704
5803 5802 5800 5797 5795 5793 5791 5789 5788 5787 5784 5780 5777 5772 5770 5768 5765 5762 5759 5756 5752 5749 5745 5742 5738 5734 5731 5728 5726 5723 5720 5718 5717 5714 5711 5709 5706 5703 5701 5700 5697 5697 5696
5795 5794 5792 5790 5788 5785 5784 5783 5781 5780 5777 5774 5771 5767 5765 5762 5759 5756 5753 5751 5747 5745 5740 5736 5733 5730 5727 5725 5721 5718 5717 5714 5711 5709 5706 5705 5701 5698 5695 5696 5693 5691 5690
5788 5787 5786 5784 5781 5779 5778 5776 5774 5772 5771 5768 5765 5762 5758 5755 5752 5750 5748 5745 5741 5738 5734 5731 5728 5726 5725 5718 5714 5711 5711 5709 5706 5703 5702 5700 5697 5693 5689 5686 5685 5684 5683
5782 5781 5780 5778 5776 5775 5773 5770 5768 5767 5764 5762 5759 5756 5752 5749 5746 5744 5741 5738 5735 5731 5728 5725 5723 5719 5716 5711 5707 5703 5704 5703 5701 5698 5696 5696 5695 5690 5687 5683 5680 5678 5676
5776 5776 5776 5773 5773 5772 5769 5766 5764 5760 5757 5754 5752 5749 5746 5743 5739 5736 5733 5731 5729 5725 5722 5718 5716 5713 5709 5704 5700 5697 5697 5697 5695 5693 5691 5689 5687 5686 5681 5680 5678 5676 5674
5772 5771 5771 5770 5766 5764 5761 5757 5755 5752 5749 5747 5745 5742 5740 5736 5733 5729 5727 5724 5721 5718 5715 5713 5710 5707 5703 5698 5694 5690 5692 5691 5689 5687 5685 5683 5681 5676 5673 5673 5672 5670 5669
5764 5762 5762 5760 5756 5753 5753 5749 5746 5743 5741 5739 5737 5735 5732 5729 5725 5722 5719 5717 5714 5711 5709 5707 5704 5700 5697 5692 5688 5683 5686 5685 5684 5681 5680 5675 5673 5668 5665 5666 5665 5663 5663
5753 5752 5751 5748 5745 5744 5742 5738 5736 5734 5734 5732 5730 5727 5724 5721 5718 5714 5711 5709 5706 5704 5702 5699 5697 5694 5690 5686 5682 5678 5679 5679 5678 5677 5675 5673 5665 5661 5658 5657 5659 5657 5655
5743 5742 5740 5737 5735 5733 5731 5728 5725 5726 5725 5723 5721 5718 5715 5714 5712 5706 5703 5701 5698 5696 5693 5690 5688 5686 5684 5679 5675 5672 5669 5669 5670 5670 5670 5667 5659 5655 5652 5651 5651 5648 5646
5732 5732 5729 5726 5724 5722 5721 5717 5716 5716 5715 5713 5711 5709 5706 5704 5702 5699 5696 5693 5691 5689 5687 5683 5681 5678 5677 5673 5668 5665 5663 5661 5661 5662 5659 5656 5652 5649 5647 5645 5643 5641 5643
5721 5721 5718 5715 5713 5712 5710 5708 5707 5706 5705 5703 5701 5700 5698 5696 5693 5691 5690 5687 5684 5682 5680 5678 5676 5673 5670 5668 5664 5662 5659 5654 5653 5652 5650 5646 5643 5643 5642 5640 5638 5639 5640
5711 5711 5707 5705 5703 5702 5700 5698 5697 5696 5695 5694 5692 5691 5690 5688 5683 5681 5679 5678 5675 5673 5669 5670 5668 5666 5664 5659 5653 5651 5651 5649 5647 5644 5643 5642 5641 5639 5639 5638 5637 5636 5635
5701 5699 5697 5696 5694 5693 5690 5688 5686 5685 5684 5683 5682 5682 5680 5678 5676 5673 5669 5665 5663 5660 5657 5655 5654 5655 5651 5647 5644 5641 5639 5637 5635 5635 5638 5638 5637 5635 5634 5633 5631 5630 5629